STARLINK-33809, 63508

Orbit data source: Space-Track

STARLINK-33809, 63508 is a payload satellite owned by SpaceX/Seattle (US) in LEO that was launched on Mon, 07 Apr 2025 UTC via an FALCON 9 launch vehicle from the Air Force Western Test Range (AFWTR). Payload-class satellites include a variety of spacecraft equipped with specific instruments for various scientific and technological missions. These include communications satellites like Starlink; space stations such as the ISS; scientific satellites like the Hubble; Earth observation satellites from companies like Planet Labs, Umbra, and HawkEye 360; GPS; miniature CubeSats for education and research; and military/defense satellites.

Loading next visibility...
Identifier
63508, 2025-071R
Orbit
LEO
Last TLE update
15 hours ago
Origin
Manufacturer
SpaceX/Seattle
Mission
Operational Commercial Communications
Bus & Motor
STARLINK V2MO, Unknown motor
Mass
575 kg wet, ~530 kg dry
Launch date (UTC)
2025-04-07 (1 month ago)
Launch vehicle
FALCON 9
Launch site
Air Force Western Test Range (AFWTR)
Object type
Payload
Rocket body
Debris
Shape & HBR
Box + 1 Pan, 29 m
Radar Cross Section
41.120 m², Large (>1 m²)

Expand to show TLE details & history

TLE from 15 hours ago
0 STARLINK-33809
1 63508U 25071R   25129.25002315 -.01365734  00000-0 -24169-1 0  9998
2 63508  53.1598 116.9567 0001181  68.9998  48.7962 15.52709096  6051
Epoch: 2025-05-09T06:00Z
Definitive object data (Epoch: 2025-05-09T06:00:02Z)
Latitude
45.20715°
Longitude
-68.98729°
Altitude
413.016 km
Speed
7.669 km/s
True Right ascension
16h 33m 19s
True Declination
45° 01' 35"
Sunlit
Object was in full shadow at TLE epoch
Visualization TLE readout
Latitude
20.59412°
Longitude
172.88349°
Altitude
414.259 km
Speed
7.666 km/s
Apparent Right ascension
11h 57m 34s
Apparent Declination
-18° 31' 36"
Sunlit
Object is in daylight
Visualization observer readout
Local Sidereal Time
05:15:04
Azimuth
98.032° ESE
Elevation
-19.756°
Doppler factor
1
Orbital elements
Apogee altitude
409.881 km
Perigee altitude
408.278 km
Semi-major axis
6,787.216 km
Eccentricity
0.0001181
Inclination
53.1598°
RAAN
116.9567°
Arg. of periapsis
68.9998°
True anomaly
48.80638°
Mean anomaly
48.7962°
Eccentric anomaly
48.80129°
Mean motion
3.88155 °/min
BSTAR
-0.024169
Orbital period
92.75 mins
Loading maneuver chart data...
Loading SW <> Apogee altitude chart data...
Loading historical data...
Loading historical data...
Loading historical data...
Loading historical data...
Loading historical data...
Loading historical data...
Loading historical data...

STARLINK-33809 Visibility forecast

Observer location: undefined°, undefined°

Span
Click to sort rows by Start time (UTC) header in descending order
Start Az.
Max El. time (UTC)
Max El. Az.
Max El.
End time (UTC)
End Az.
6 mins2025-05-10 01:45:49.795Z224.858° SW2025-05-10 01:48:49.795Z192.186° SSW43.491°2025-05-10 01:51:49.795Z52.81° ENE
5 mins2025-05-10 08:16:49.795Z323.346° NNW2025-05-10 08:18:49.795Z30.612° NE39.704°2025-05-10 08:21:49.795Z115.762° SE
|